DW5683 Weather Reports


Display with metric or nautical units.
time (UTC)temp
F
wind
direction
speed
MPH
gust
MPH
rain 1hr
in
rain 24hr
in
rain mn
in
humidity
%
barometer
mb
20260503003044 74 0 0.0 6.0 0.00 0.00 0.00 51 1009.1
20260503001546 74 0 0.0 7.0 0.00 0.00 0.00 53 1009.2
20260503000044 74 170 1.0 6.0 0.00 0.00 0.00 54 1009.3
20260502234549 75 170 0.0 5.0 0.00 0.00 0.00 52 1009.4
20260502233041 76 0 2.0 8.0 0.00 0.00 0.00 52 1009.4
20260502231535 76 169 2.0 10.0 0.00 0.00 0.00 53 1009.5
20260502230037 76 169 0.0 10.0 0.00 0.00 0.00 54 1009.7
20260502224538 75 0 0.0 5.0 0.00 0.00 0.00 52 1009.9
20260502223042 76 0 0.0 7.0 0.00 0.00 0.00 50 1010.2
20260502221537 75 169 2.0 6.0 0.00 0.00 0.00 54 1010.4
20260502220039 74 169 0.0 10.0 0.00 0.00 0.00 51 1010.7
20260502214544 74 0 0.0 7.0 0.00 0.00 0.00 52 1010.9
20260502213036 74 169 2.0 7.0 0.00 0.00 0.00 55 1011.1
20260502211540 73 0 1.0 10.0 0.00 0.00 0.00 53 1011.2
20260502210045 73 161 2.0 9.0 0.00 0.00 0.00 57 1011.4
20260502204537 73 141 2.0 8.0 0.00 0.00 0.00 57 1011.5
20260502203045 71 135 0.0 5.0 0.00 0.00 0.00 59 1011.6
20260502201536 69 135 1.0 7.0 0.00 0.00 0.00 63 1011.6
20260502200035 69 138 0.0 4.0 0.00 0.00 0.00 61 1011.8
20260502194534 69 138 0.0 4.0 0.00 0.00 0.00 62 1011.8
20260502193042 68 138 0.0 7.0 0.00 0.00 0.00 63 1011.8
20260502191540 68 163 1.0 7.0 0.00 0.00 0.00 65 1012.1
20260502190043 65 189 1.0 5.0 0.00 0.00 0.00 67 1012.0
20260502184539 64 0 0.0 4.0 0.00 0.00 0.00 69 1012.1
20260502183035 65 0 0.0 3.0 0.00 0.00 0.00 70 1012.2
20260502181544 64 0 0.0 4.0 0.00 0.00 0.00 70 1012.3
20260502163048 63 0 0.0 2.0 0.00 0.00 0.00 71 1011.7
20260502161536 63 0 0.0 5.0 0.00 0.00 0.00 71 1011.6
20260502151551 58 184 0.0 4.0 0.00 0.00 0.00 79 1011.5
20260502123047 55 0 0.0 1.0 0.00 0.00 0.00 81 1010.4
20260502121540 55 0 0.0 2.0 0.00 0.00 0.00 81 1010.5
20260502114537 56 185 0.0 4.0 0.00 0.00 0.00 81 1010.6
20260502113036 56 188 1.0 5.0 0.00 0.00 0.00 81 1010.6
20260502111538 57 193 1.0 3.0 0.00 0.00 0.00 82 1010.6
20260502110039 57 0 0.0 2.0 0.00 0.00 0.00 84 1010.8
20260502104538 58 0 0.0 3.0 0.00 0.00 0.00 84 1010.7
20260502103037 58 0 0.0 3.0 0.00 0.00 0.00 83 1010.6
20260502101540 58 0 0.0 2.0 0.00 0.00 0.00 82 1010.6
20260502070042 64 0 0.0 4.0 0.00 0.00 0.00 77 1011.0
20260502064535 64 194 0.0 5.0 0.00 0.00 0.00 77 1011.1
20260502063038 65 0 0.0 2.0 0.00 0.00 0.00 76 1011.0
20260502061541 65 0 0.0 0.0 0.00 0.00 0.00 76 1011.1
20260502060041 66 0 0.0 2.0 0.00 0.00 0.00 75 1011.1
20260502054536 66 0 0.0 3.0 0.00 0.00 0.00 74 1011.2
20260502053037 67 194 1.0 4.0 0.00 0.00 0.00 74 1011.2
20260502051534 66 0 0.0 3.0 0.00 0.00 0.00 75 1011.1
20260502050042 66 0 0.0 0.0 0.00 0.00 0.00 77 1011.1
20260502044538 65 0 0.0 0.0 0.00 0.00 0.00 79 1010.9
20260502043042 66 0 0.0 0.0 0.00 0.00 0.00 80 1010.8
20260502041536 68 0 0.0 0.0 0.00 0.00 0.00 78 1010.5
20260502040038 69 0 0.0 0.0 0.00 0.00 0.00 76 1010.3
20260502034534 70 0 0.0 0.0 0.00 0.00 0.00 74 1010.2
20260502033041 72 0 0.0 0.0 0.00 0.00 0.00 72 1009.9
20260502031540 73 0 0.0 0.0 0.00 0.00 0.00 68 1009.9
20260502030038 75 0 0.0 0.0 0.00 0.00 0.00 64 1009.7
20260502024538 76 0 0.0 0.0 0.00 0.00 0.00 60 1009.6
20260502023036 77 0 0.0 2.0 0.00 0.00 0.00 58 1009.5
20260502021532 78 0 0.0 2.0 0.00 0.00 0.00 56 1009.4
20260502020041 79 0 0.0 4.0 0.00 0.00 0.00 55 1009.4
20260502014538 80 0 0.0 6.0 0.00 0.00 0.00 53 1009.5
20260502013037 80 0 0.0 2.0 0.00 0.00 0.00 50 1009.7
20260502011536 81 194 1.0 4.0 0.00 0.00 0.00 49 1009.8
20260502010035 81 0 0.0 3.0 0.00 0.00 0.00 49 1009.7
20260502004538 81 0 1.0 5.0 0.00 0.00 0.00 48 1009.9